1499079600.34,5646,17.69,73982.8,13.57,-19.99,-24.11,0,*72
1499079601.59,5647,17.69,73982.8,13.63,-19.41,-23.33,0,*76
1499079602.87,5648,17.63,73982.0,13.65,-19.23,-23.03,0,*78
1499079604.06,5649,17.63,73974.0,13.71,-21.39,-25.35,0,*7F
1499079605.33,5650,17.69,73970.5,13.73,-22.17,-26.07,0,*78
1499079606.55,5651,17.69,73966.5,13.73,-22.03,-25.91,0,*70
1499079607.84,5652,17.69,73958.5,13.73,-22.17,-26.13,0,*7F
1499079609.05,5653,17.69,73962.0,13.75,-22.93,-27.03,0,*74
1499079610.32,5654,17.69,73968.3,13.73,-25.45,-29.73,0,*70
1499079611.58,5655,17.69,73960.5,13.73,-25.65,-30.01,0,*7E
1499079612.81,5656,17.69,73960.0,13.69,-23.75,-27.55,0,*76
1499079614.04,5657,17.63,73962.5,13.71,-21.53,-24.97,0,*75
1499079615.26,5658,17.69,73962.0,13.75,-20.25,-23.49,0,*7A
1499079616.49,5659,17.69,73954.3,13.75,-23.89,-27.61,0,*70
1499079617.73,5660,17.69,73954.8,13.75,-23.59,-27.35,0,*76
1499079618.99,5661,17.69,73960.8,13.75,-22.47,-25.75,0,*7F
1499079620.22,5662,17.63,73966.3,13.79,-22.57,-26.29,0,*7B
1499079621.42,5663,17.69,73970.5,13.79,-20.93,-24.47,0,*7A
1499079622.64,5664,17.69,73962.5,13.85,-21.09,-24.51,0,*7B
1499079623.9,5665,17.69,73948.3,13.85,-23.03,-25.49,0,*7A
1499079625.18,5666,17.69,73950.0,13.85,-21.27,-23.53,0,*70
1499079626.4,5667,17.69,73942.0,13.85,-22.27,-24.97,0,*7D
1499079627.61,5668,17.69,73948.8,13.89,-21.77,-23.13,0,*73
1499079628.83,5669,17.69,73946.0,13.89,-20.15,-22.27,0,*71
1499079630.06,5670,17.69,73942.5,13.89,-22.11,-25.81,0,*74
1499079631.3,5671,17.69,73944.8,13.87,-23.19,-27.39,0,*73
1499079632.53,5672,17.69,73958.3,13.87,-22.57,-26.81,0,*79
1499079633.77,5673,17.69,73962.8,13.89,-21.53,-25.19,0,*73
1499079635.0,5674,17.69,73960.8,13.89,-22.27,-25.97,0,*72
1499079636.27,5675,17.69,73962.5,13.91,-21.03,-24.67,0,*71
1499079637.49,5676,17.69,73956.0,13.93,-20.53,-24.35,0,*73
1499079638.75,5677,17.69,73958.0,13.97,-21.87,-25.75,0,*7B
1499079639.98,5678,17.69,73956.3,13.97,-21.87,-25.61,0,*71
1499079641.23,5679,17.69,73958.3,13.99,-21.09,-24.71,0,*78
1499079642.46,5680,17.69,73950.0,13.99,-22.97,-27.07,0,*78
1499079643.68,5681,17.69,73948.8,14.01,-22.47,-26.49,0,*79
1499079644.91,5682,17.69,73952.5,14.01,-23.43,-26.97,0,*7C
1499079646.14,5683,17.69,73964.8,13.99,-21.63,-23.59,0,*7C
1499079647.36,5684,17.69,73962.8,14.01,-20.93,-24.21,0,*7B
1499079648.63,5685,17.69,73950.8,14.03,-21.03,-25.81,0,*7B
1499079649.85,5686,17.69,73954.8,14.03,-22.57,-27.13,0,*73
1499079651.08,5687,17.69,73962.5,14.05,-22.87,-26.97,0,*74
1499079652.31,5688,17.69,73956.3,14.05,-22.77,-24.77,0,*78
1499079653.55,5689,17.69,73950.0,14.03,-18.69,-18.89,0,*77
1499079654.79,5690,17.69,73948.0,14.03,-14.97,-14.15,0,*7B
1499079656.02,5691,17.69,73954.3,14.03,-10.05,-11.29,0,*7F
1499079657.24,5692,17.69,73956.3,14.03,-8.93,-10.85,0,*4D
1499079658.48,5693,17.69,73958.5,14.05,-9.45,-12.83,0,*44
1499079659.68,5694,17.69,73956.3,14.01,-8.97,-12.89,0,*43
1499079660.94,5695,17.69,73958.8,13.99,-9.61,-13.29,0,*47
1499079662.16,5696,17.69,73960.5,13.99,-8.67,-11.41,0,*4F
1499079663.39,5697,17.69,73962.8,13.97,-7.69,-9.15,0,*79
1499079664.61,5698,17.69,73964.8,13.97,-6.39,-9.53,0,*70
1499079665.83,5699,17.69,73966.8,13.95,-8.63,-17.73,0,*4F
1499079667.08,5700,17.69,73970.0,13.95,-12.75,-22.63,0,*75
1499079668.33,5701,17.69,73960.3,13.95,-13.15,-17.97,0,*7E
1499079669.53,5702,17.69,73958.5,13.93,-15.71,-15.67,0,*72
1499079670.78,5703,17.69,73960.5,13.91,-13.55,-11.97,0,*7A
1499079672.03,5704,17.69,73966.3,13.91,-11.55,-11.01,0,*70
1499079673.27,5705,17.69,73966.8,13.93,-11.41,-11.59,0,*7B
1499079674.5,5706,17.69,73948.8,13.93,-11.29,-12.21,0,*7A
1499079675.72,5707,17.69,73944.8,13.91,-10.19,-13.47,0,*7A
1499079676.93,5708,17.69,73952.5,13.87,-8.97,-11.37,0,*48
1499079678.18,5709,17.69,73974.8,13.81,-5.93,-7.49,0,*78
1499079679.42,5710,17.69,73976.0,13.81,-6.01,-6.93,0,*7E
1499079680.64,5711,17.69,73958.3,13.81,-10.31,-10.31,0,*74
1499079681.87,5712,17.69,73948.3,13.77,-9.57,-8.25,0,*7A
1499079683.09,5713,17.69,73952.0,13.73,-8.55,-9.19,0,*72
1499079684.34,5714,17.69,73968.5,13.69,-8.97,-13.01,0,*42
1499079685.59,5715,17.69,73968.8,13.65,-6.09,-12.35,0,*40
1499079686.81,5716,17.69,73960.0,13.59,-3.71,-10.85,0,*4F
1499079688.05,5717,17.69,73952.5,13.63,-2.67,-10.71,0,*4A
1499079689.27,5718,17.69,73946.3,13.63,-5.43,-15.21,0,*44
1499079690.49,5719,17.69,73952.3,13.63,-6.63,-15.53,0,*41
1499079691.74,5720,17.69,73950.3,13.67,-5.81,-12.35,0,*47
1499079692.97,5721,17.69,73964.0,13.67,-6.09,-12.35,0,*45
1499079694.19,5722,17.69,73972.0,13.67,-7.69,-13.93,0,*4C
1499079695.43,5723,17.69,73966.8,13.67,-7.95,-14.01,0,*42
1499079696.63,5724,17.69,73964.5,13.67,-10.05,-16.89,0,*78
1499079697.84,5725,17.69,73970.0,13.67,-9.93,-17.55,0,*4E
1499079699.1,5726,17.69,73970.3,13.67,-12.75,-22.17,0,*7F
1499079700.36,5727,17.69,73970.0,13.65,-13.37,-21.77,0,*7E
1499079701.57,5728,17.69,73972.3,13.67,-17.35,-26.39,0,*78
1499079702.8,5729,17.69,73976.0,13.63,-17.25,-25.23,0,*74
1499079704.02,5730,17.69,73980.0,13.63,-15.85,-23.79,0,*7D
1499079705.25,5731,17.69,73998.8,13.65,-17.31,-22.83,0,*73
1499079706.51,5732,17.69,73970.5,13.65,-24.51,-26.13,0,*7B
1499079707.71,5733,17.69,73948.5,13.59,-22.93,-26.45,0,*7E
1499079708.93,5734,17.69,73950.3,13.53,-22.03,-24.11,0,*79
1499079710.15,5735,17.69,73962.0,13.49,-21.33,-23.75,0,*76
1499079711.35,5736,17.69,73952.8,13.45,-19.07,-24.97,0,*7E
1499079712.61,5737,17.69,73968.5,13.47,-20.53,-23.53,0,*79
1499079713.83,5738,17.69,73966.3,13.47,-20.09,-20.09,0,*75
1499079715.05,5739,17.69,73962.8,13.45,-16.37,-12.15,0,*72
1499079716.3,5740,17.69,73962.5,13.45,-14.75,-11.51,0,*7B
1499079717.54,5741,17.69,73954.8,13.43,-11.37,-10.45,0,*7B
1499079718.77,5742,17.69,73956.8,13.37,-13.69,-13.97,0,*7E
1499079719.97,5743,17.69,73954.0,13.37,-12.25,-12.97,0,*77
1499079721.22,5744,17.69,73958.0,13.31,-13.37,-15.07,0,*7A
1499079722.49,5745,17.69,73940.3,13.27,-15.35,-17.55,0,*7D
1499079723.72,5746,17.69,73940.5,13.25,-13.61,-15.15,0,*7D
1499079724.92,5747,17.69,73938.8,13.23,-15.15,-16.03,0,*7B
1499079726.17,5748,17.69,73938.3,13.21,-15.11,-14.79,0,*7D
1499079727.38,5749,17.69,73946.5,13.23,-14.65,-11.59,0,*7B
1499079728.61,5750,17.69,73948.8,13.23,-12.75,-8.85,0,*4D
1499079729.79,5751,17.69,73948.0,13.23,-11.19,-7.53,0,*41
1499079731.02,5752,17.69,73936.5,13.21,-12.21,-11.15,0,*7D
1499079732.25,5753,17.69,73934.8,13.21,-9.71,-10.45,0,*47
1499079733.48,5754,17.69,73942.5,13.19,-7.31,-7.69,0,*79
1499079734.74,5755,17.69,73940.0,13.17,-5.69,-5.89,0,*75
1499079736.0,5756,17.69,73942.8,13.17,-5.11,-4.77,0,*79
1499079737.26,5757,17.69,73942.0,13.17,-5.69,-5.65,0,*75
1499079738.48,5758,17.69,73956.5,13.17,-6.81,-6.31,0,*7D
1499079739.7,5759,17.69,73972.8,13.17,-6.01,-4.25,0,*73
1499079740.94,5760,17.69,73948.5,13.13,-5.15,-3.35,0,*7D
1499079742.14,5761,17.69,73942.3,13.11,-4.77,-3.27,0,*78
1499079743.34,5762,17.69,73946.3,13.11,-3.83,-2.39,0,*79
1499079744.55,5763,17.69,73952.5,13.11,-2.83,-2.11,0,*73
1499079745.79,5764,17.69,73948.0,13.13,-1.95,-2.87,0,*7D
1499079747.01,5765,17.69,73932.0,13.11,-2.95,-5.65,0,*76
1499079748.25,5766,17.69,73954.3,13.07,-3.55,-7.91,0,*76
1499079749.47,5767,17.69,73966.3,13.03,-5.69,-10.05,0,*41
1499079750.67,5768,17.69,73970.5,12.99,-4.77,-8.67,0,*7F
1499079751.86,5769,17.69,73964.0,12.95,-2.95,-6.73,0,*73
1499079753.1,5770,17.69,73962.3,12.95,-3.43,-8.11,0,*7B
1499079754.34,5771,17.69,73960.8,12.91,-2.47,-8.85,0,*76
1499079755.58,5772,17.69,73964.8,12.91,-5.19,-9.97,0,*7B
1499079756.78,5773,17.69,73960.5,12.89,-6.73,-10.57,0,*48
1499079758.02,5774,17.69,73964.3,12.85,-5.89,-12.15,0,*41
1499079759.24,5775,17.69,73966.0,12.85,-6.81,-14.79,0,*47
1499079760.45,5776,17.69,73954.8,12.85,-9.53,-15.15,0,*4F
1499079761.68,5777,17.69,73956.5,12.87,-6.93,-8.75,0,*75
1499079762.92,5778,17.69,73960.3,12.87,-5.97,-7.99,0,*70
1499079764.16,5779,17.69,73974.8,12.87,-5.55,-9.61,0,*76
1499079765.36,5780,17.69,73978.8,12.89,-8.89,-15.63,0,*4D
1499079766.59,5781,17.69,73974.0,12.87,-10.97,-17.73,0,*77
1499079767.8,5782,17.69,73976.8,12.85,-8.97,-19.31,0,*47
1499079769.05,5783,17.69,73974.8,12.87,-11.11,-22.17,0,*7E
1499079770.3,5784,17.69,73964.5,12.87,-15.49,-19.57,0,*7C
1499079771.58,5785,17.69,73964.0,12.87,-12.35,-14.97,0,*70
1499079772.79,5786,17.69,73960.5,12.91,-9.93,-13.19,0,*43
1499079774.04,5787,17.69,73964.3,12.91,-9.41,-15.99,0,*43
1499079775.28,5788,17.69,73970.0,12.95,-11.59,-18.89,0,*74
1499079776.51,5789,17.69,73976.3,12.97,-13.55,-18.69,0,*77
1499079777.72,5790,17.69,73972.0,12.99,-12.47,-10.53,0,*72
1499079778.96,5791,17.69,73980.8,13.03,-9.53,-6.19,0,*77
1499079780.18,5792,17.69,73976.5,13.05,-3.91,-2.79,0,*74
1499079781.45,5793,17.69,73968.8,13.05,-3.55,-7.91,0,*7E
1499079782.65,5794,17.69,73956.0,13.03,-5.43,-12.21,0,*41
1499079783.89,5795,17.69,73956.0,13.05,-3.71,-8.45,0,*78
1499079785.11,5796,17.69,73960.3,13.09,-6.89,-11.23,0,*4D
1499079786.35,5797,17.69,73972.3,13.07,-7.91,-9.49,0,*7F
1499079787.59,5798,17.69,73962.5,13.09,-8.63,-6.63,0,*7B
1499079788.82,5799,17.69,73952.8,13.09,-6.13,-5.55,0,*75
1499079790.01,5800,17.69,73952.8,13.07,-5.51,-7.49,0,*7E
1499079791.23,5801,17.69,73964.5,13.03,-4.09,-7.43,0,*7D
1499079792.45,5802,17.69,73954.5,13.03,-3.31,-7.95,0,*79
1499079793.66,5803,17.69,73954.8,13.03,-4.09,-7.69,0,*77
1499079794.88,5804,17.69,73962.0,13.05,-1.51,-4.21,0,*71
1499079796.12,5805,17.69,73968.0,13.05,-1.21,-3.67,0,*72
1499079797.34,5806,17.69,73974.0,13.07,-1.39,-3.79,0,*75
1499079798.53,5807,17.69,73978.5,13.07,-1.17,-5.35,0,*76
1499079799.77,5808,17.69,73972.8,13.07,-0.89,-4.69,0,*47
1499079800.96,5809,17.69,73976.5,13.07,1.41,-0.19,0,*6D
1499079802.21,5810,17.69,73976.3,13.09,2.89,1.29,0,*73
1499079803.41,5811,17.69,73984.8,13.11,3.03,2.35,0,*76
1499079804.64,5812,17.69,73984.0,13.13,4.23,3.15,0,*71
1499079805.9,5813,17.69,73986.5,13.13,2.47,0.91,0,*4B
1499079807.16,5814,17.69,73978.0,13.13,2.17,1.37,0,*74
1499079808.38,5815,17.69,73970.3,13.11,1.71,0.51,0,*45
1499079809.6,5816,17.69,73948.3,13.09,1.93,1.41,0,*73
1499079810.8,5817,17.69,73968.5,13.07,1.41,0.41,0,*42
1499079811.98,5818,17.69,73968.0,13.03,0.97,-0.33,0,*5B
1499079813.19,5819,17.69,73958.3,13.03,0.05,-1.35,0,*56
1499079814.41,5820,17.69,73944.5,12.99,0.47,-0.97,0,*51
1499079815.61,5821,17.69,73954.5,12.97,1.05,0.05,0,*7F
1499079816.83,5822,17.69,73966.5,12.95,1.25,0.67,0,*48
1499079818.03,5823,17.69,73972.8,12.91,0.05,-1.55,0,*53
1499079819.24,5824,17.69,73966.8,12.89,-0.85,-2.23,0,*4A
1499079820.44,5825,17.69,73966.0,12.85,-0.69,-1.13,0,*45
1499079821.66,5826,17.69,73968.5,12.83,0.25,-0.73,0,*52
1499079822.86,5827,17.69,73966.8,12.83,-0.29,-0.81,0,*7F
1499079824.1,5828,17.69,73970.3,12.79,0.51,0.21,0,*70
1499079825.36,5829,17.69,73972.8,12.79,2.51,2.17,0,*74
1499079826.61,5830,17.69,73974.0,12.83,3.07,2.77,0,*7D
1499079827.84,5831,17.69,73972.3,12.81,2.39,2.05,0,*77
1499079829.04,5832,17.69,73974.0,12.81,2.61,1.93,0,*75
1499079830.23,5833,17.69,73964.5,12.77,2.61,1.43,0,*70
1499079831.45,5834,17.69,73970.3,12.77,2.05,0.33,0,*43
1499079832.67,5835,17.69,73972.5,12.77,2.59,0.29,0,*40
1499079833.93,5836,17.69,73974.5,12.75,2.39,-1.39,0,*5A
1499079835.14,5837,17.69,73976.5,12.73,2.59,-4.99,0,*54
1499079836.33,5838,17.69,73970.0,12.73,-2.23,-13.47,0,*4E
1499079837.58,5839,17.69,73970.3,12.73,-2.55,-12.57,0,*4E
1499079838.81,5840,17.69,73974.3,12.75,0.95,-4.21,0,*63
1499079840.03,5841,17.69,73970.5,12.79,1.47,-1.59,0,*5A
1499079841.26,5842,17.69,73960.8,12.83,0.51,-1.79,0,*68
1499079842.48,5843,17.69,73954.5,12.83,0.87,-1.25,0,*6B
1499079843.73,5844,17.69,73954.5,12.87,1.67,-0.27,0,*64
1499079844.95,5845,17.69,73952.8,12.87,1.67,-0.61,0,*67
1499079846.19,5846,17.69,73956.0,12.89,1.09,-2.59,0,*5B
1499079847.43,5847,17.69,73956.3,12.89,-0.85,-4.69,0,*47
1499079848.69,5848,17.69,73970.8,12.87,-1.83,-6.27,0,*79
1499079849.92,5849,17.69,73984.8,12.85,-1.01,-7.31,0,*76
1499079851.13,5850,17.69,73972.0,12.85,-5.73,-14.23,0,*4E
1499079852.38,5851,17.69,73968.5,12.81,-8.11,-18.31,0,*4D
1499079853.62,5852,17.69,73966.3,12.83,-6.47,-9.83,0,*78
1499079854.85,5853,17.69,73966.8,12.87,-5.61,-9.89,0,*70
1499079856.09,5854,17.69,73968.8,12.87,-3.27,-6.63,0,*78
1499079857.3,5855,17.69,73970.3,12.91,-0.49,-4.25,0,*45
1499079858.55,5856,17.69,73968.8,12.97,-1.21,-7.35,0,*7D
1499079859.79,5857,17.69,73974.3,13.01,-1.39,-8.55,0,*72
1499079861.0,5858,17.69,73966.3,13.03,-2.23,-7.35,0,*7E
1499079862.24,5859,17.69,73966.3,13.09,-1.05,-3.03,0,*73
1499079863.48,5860,17.69,73970.5,13.13,-0.27,-1.71,0,*44
1499079864.69,5861,17.69,73978.5,13.17,-1.21,-3.23,0,*73
1499079865.9,5862,17.69,73974.5,13.19,-4.17,-6.63,0,*7F
1499079867.1,5863,17.69,73972.8,13.19,-7.99,-8.75,0,*72
1499079868.28,5864,17.69,73974.8,13.19,-8.67,-5.97,0,*7A
1499079869.47,5865,17.69,73972.0,13.23,-6.85,-2.23,0,*78
1499079870.69,5866,17.69,73976.3,13.25,-5.69,-0.73,0,*4B
1499079871.92,5867,17.69,73978.5,13.27,-2.79,0.91,0,*6F
1499079873.12,5868,17.69,73982.8,13.29,-2.99,-0.93,0,*4F
1499079874.31,5869,17.69,73982.8,13.29,-2.79,-1.79,0,*75
1499079875.55,5870,17.69,73980.5,13.29,-1.01,-1.13,0,*7D
1499079876.77,5871,17.69,73976.8,13.29,1.43,0.79,0,*47
1499079878.02,5872,17.69,73976.5,13.31,2.05,1.13,0,*71
1499079879.22,5873,17.69,73988.0,13.33,3.59,2.89,0,*7A
1499079880.47,5874,17.69,73990.0,13.35,4.93,3.97,0,*74
1499079881.71,5875,17.69,73986.3,13.35,3.97,2.81,0,*70
1499079882.89,5876,17.69,73980.0,13.37,4.57,2.61,0,*74
1499079884.08,5877,17.69,73976.5,13.37,4.01,1.41,0,*77
1499079885.31,5878,17.69,73976.8,13.41,4.59,2.25,0,*75
1499079886.5,5879,17.69,73976.0,13.41,2.95,0.67,0,*46
1499079887.75,5880,17.69,73978.5,13.43,2.17,0.63,0,*4C
1499079888.98,5881,17.69,73976.3,13.43,3.93,3.11,0,*76
1499079890.21,5882,17.69,73972.8,13.45,5.01,4.31,0,*7B
1499079891.42,5883,17.69,73982.5,13.43,5.27,4.53,0,*7C
1499079892.59,5884,17.69,73982.3,13.45,5.45,4.85,0,*72
1499079893.79,5885,17.69,73980.5,13.49,5.45,4.71,0,*74
1499079894.98,5886,17.69,73978.0,13.49,4.81,4.01,0,*79
1499079896.18,5887,17.69,73986.8,13.49,4.15,3.33,0,*73
1499079897.36,5888,17.69,73984.0,13.49,5.33,4.53,0,*78
1499079898.56,5889,17.69,73986.3,13.49,3.89,3.07,0,*78
1499079899.77,5890,17.69,73982.5,13.49,4.37,3.49,0,*78
1499079900.96,5891,17.69,73980.5,13.47,4.57,3.63,0,*79
1499079902.13,5892,17.69,73978.3,13.49,5.11,4.15,0,*71
1499079903.33,5893,17.69,73982.3,13.49,4.75,3.55,0,*70
1499079904.57,5894,17.69,73986.0,13.51,4.97,4.01,0,*74
1499079905.79,5895,17.69,73990.8,13.51,5.73,4.49,0,*72
1499079907.05,5896,17.69,73986.3,13.51,4.71,3.33,0,*78
1499079908.27,5897,17.69,73984.8,13.51,4.37,3.07,0,*7C
1499079909.5,5898,17.69,73988.0,13.51,4.15,3.33,0,*74
1499079910.7,5899,17.69,73986.5,13.53,4.67,3.85,0,*7F
1499079911.95,5900,17.69,73980.8,13.51,3.71,2.77,0,*70
1499079913.17,5901,17.69,73980.0,13.51,4.15,3.19,0,*7D
1499079914.37,5902,17.69,73972.0,13.53,4.85,3.71,0,*7B
1499079915.57,5903,17.69,73960.8,13.53,4.19,2.73,0,*7C
1499079916.78,5904,17.69,73964.8,13.53,4.19,2.81,0,*76
1499079917.98,5905,17.69,73968.0,13.53,5.05,4.15,0,*70
1499079919.18,5906,17.69,73970.0,13.53,4.79,4.15,0,*79
1499079920.4,5907,17.69,73972.8,13.55,4.59,4.23,0,*79
1499079921.64,5908,17.69,73964.0,13.55,3.85,3.41,0,*73
1499079922.86,5909,17.69,73960.3,13.55,4.23,3.37,0,*78
1499079924.11,5910,17.69,73984.8,13.55,3.75,1.93,0,*78
1499079925.33,5911,17.69,73990.5,13.55,2.31,0.37,0,*47
1499079926.53,5912,17.69,73980.8,13.53,1.43,-0.65,0,*6E
1499079927.74,5913,17.69,73986.3,13.49,-1.67,-4.81,0,*71
1499079928.95,5914,17.69,73980.5,13.45,-4.05,-7.69,0,*7E
1499079930.17,5915,17.69,73982.3,13.37,-10.45,-11.85,0,*7E
1499079931.41,5916,17.69,73966.5,13.31,-6.89,-5.93,0,*7E
1499079932.67,5917,17.69,73954.0,13.27,-3.71,-1.83,0,*7F
1499079933.91,5918,17.69,73940.8,13.27,0.87,2.21,0,*41
1499079935.14,5919,17.69,73936.8,13.31,2.69,3.81,0,*7E
1499079936.37,5920,17.69,73934.3,13.31,2.55,3.29,0,*79
1499079937.59,5921,17.69,73938.5,13.33,2.05,1.43,0,*71
1499079938.81,5922,17.69,73966.8,13.29,-1.43,-1.63,0,*7A
1499079939.99,5923,17.69,73964.0,13.25,-1.75,-2.35,0,*72
1499079941.2,5924,17.69,73940.5,13.19,-1.91,-2.31,0,*74
1499079942.44,5925,17.69,73938.0,13.13,-0.03,-1.47,0,*77
1499079943.67,5926,17.69,73930.3,13.09,-0.29,-2.03,0,*44
1499079944.86,5927,17.69,73948.8,13.03,-1.75,-4.37,0,*76
1499079946.08,5928,17.69,73956.0,13.01,-1.75,-5.43,0,*79
1499079947.3,5929,17.69,73956.3,12.97,-1.63,-5.51,0,*72
1499079948.52,5930,17.69,73948.3,12.97,-3.15,-5.47,0,*7E
1499079949.76,5931,17.69,73944.0,12.95,-1.05,-2.07,0,*7D
1499079950.99,5932,17.69,73936.0,12.95,1.63,0.59,0,*47
1499079952.23,5933,17.69,73936.3,12.97,1.89,0.67,0,*4D
1499079953.45,5934,17.69,73952.8,12.95,1.13,-0.53,0,*61
1499079954.68,5935,17.69,73956.0,12.97,1.63,-0.81,0,*6A
1499079955.89,5936,17.69,73948.8,12.95,-1.79,-5.65,0,*72
1499079957.13,5937,17.69,73954.8,12.89,-2.67,-7.27,0,*76
1499079958.32,5938,17.69,73958.5,12.89,-2.99,-6.01,0,*7D
1499079959.5,5939,17.69,73968.3,12.85,-2.83,-4.29,0,*73
1499079960.74,5940,17.69,73980.8,12.87,-3.51,-2.39,0,*76
1499079961.95,5941,17.69,73966.0,12.89,-3.63,-0.03,0,*73
1499079963.16,5942,17.69,73960.0,12.91,-8.97,-4.09,0,*77
1499079964.36,5943,17.69,73962.8,12.89,-10.57,-5.47,0,*41
1499079965.54,5944,17.69,73960.5,12.85,-8.67,-4.33,0,*72
1499079966.75,5945,17.69,73964.5,12.81,-7.15,-3.67,0,*7B
1499079967.99,5946,17.69,73962.5,12.77,-5.65,-2.55,0,*74
1499079969.18,5947,17.69,73970.8,12.77,-7.19,-3.95,0,*71
1499079970.39,5948,17.69,73964.8,12.77,-5.61,-2.15,0,*7A
1499079971.64,5949,17.69,73972.3,12.75,-2.07,0.33,0,*65
1499079972.83,5950,17.69,73978.3,12.73,-2.95,-3.07,0,*79
1499079974.05,5951,17.69,73964.8,12.73,-0.85,-2.31,0,*4F
1499079975.24,5952,17.69,73948.5,12.69,-0.77,-3.27,0,*4C
1499079976.5,5953,17.69,73952.0,12.67,-2.71,-5.73,0,*70
1499079977.75,5954,17.69,73962.0,12.65,-3.71,-5.89,0,*71
1499079978.94,5955,17.69,73952.0,12.69,-3.35,-3.03,0,*78
1499079980.15,5956,17.69,73954.0,12.75,-8.71,-6.69,0,*74
1499079981.42,5957,17.69,73948.5,12.75,-14.55,-9.49,0,*43
1499079982.66,5958,17.69,73960.8,12.79,-16.13,-8.33,0,*4C
1499079983.9,5959,17.69,73966.0,12.79,-11.41,-3.67,0,*47
1499079985.15,5960,17.69,73978.0,12.83,-11.45,-7.39,0,*43
1499079986.37,5961,17.69,73970.5,12.83,-11.45,-8.29,0,*4C
1499079987.58,5962,17.69,73970.8,12.81,-6.73,-4.81,0,*70
1499079988.81,5963,17.69,73978.8,12.77,-3.31,-5.07,0,*74
1499079990.04,5964,17.69,73976.0,12.75,-6.69,-17.45,0,*4C
1499079991.27,5965,17.69,73976.8,12.73,-12.89,-23.23,0,*77
1499079992.53,5966,17.69,73978.8,12.67,-16.23,-26.23,0,*70
1499079993.74,5967,17.69,73970.5,12.69,-15.07,-19.81,0,*7E
1499079994.99,5968,17.69,73966.5,12.75,-9.61,-10.27,0,*44
1499079996.24,5969,17.69,73966.0,12.79,-4.69,-5.93,0,*77
1499079997.45,5970,17.69,73972.0,12.83,-1.59,-4.21,0,*74
1499079998.7,5971,17.69,73966.5,12.83,-1.91,-3.71,0,*73
1499079999.93,5972,17.69,73970.8,12.87,-2.59,-3.03,0,*76
1499080001.14,5973,17.69,73988.0,12.87,-2.39,-3.87,0,*7D
1499080002.34,5974,17.69,73988.5,12.85,-2.67,-5.97,0,*74
1499080003.58,5975,17.69,73982.0,12.87,-7.57,-8.75,0,*70
1499080004.79,5976,17.69,73986.3,12.85,-6.39,-4.81,0,*7F
1499080006.02,5977,17.69,73990.8,12.85,-3.67,-1.01,0,*7D
1499080007.26,5978,17.69,73992.8,12.83,-0.85,1.97,0,*69
1499080008.49,5979,17.69,73994.0,12.87,1.93,3.55,0,*7B
1499080009.7,5980,17.69,73988.8,12.87,2.21,2.91,0,*7E
1499080010.94,5981,17.69,73990.5,12.91,3.67,3.89,0,*73
1499080012.13,5982,17.69,73980.3,12.91,4.81,4.89,0,*78
1499080013.37,5983,17.69,73976.3,12.97,5.23,5.05,0,*73
1499080014.6,5984,17.69,73978.3,12.97,4.11,3.79,0,*79
1499080015.81,5985,17.69,73978.5,12.97,3.93,3.63,0,*7E
1499080017.05,5986,17.69,73976.3,12.97,3.23,2.61,0,*75
1499080018.28,5987,17.69,73978.3,12.95,3.23,2.59,0,*7D
1499080019.48,5988,17.69,73980.8,12.95,3.45,2.95,0,*72
1499080020.71,5989,17.69,73980.8,12.95,3.71,3.07,0,*7E
1499080021.88,5990,17.69,73976.8,12.95,4.37,3.63,0,*71
1499080023.1,5991,17.69,73974.8,12.91,1.83,0.75,0,*4A
1499080024.33,5992,17.69,73968.3,12.89,2.21,1.21,0,*7B
1499080025.57,5993,17.69,73964.5,12.87,1.43,0.37,0,*45
1499080026.79,5994,17.69,73960.3,12.85,2.51,1.43,0,*72
1499080028.01,5995,17.69,73966.0,12.83,2.13,0.97,0,*4B
1499080029.23,5996,17.69,73968.8,12.81,3.53,1.97,0,*7E
1499080030.44,5997,17.69,73962.5,12.81,1.67,0.13,0,*47
1499080031.69,5998,17.69,73954.0,12.79,1.93,0.59,0,*4A
1499080032.92,5999,17.69,73944.0,12.77,4.05,3.07,0,*77
1499080034.12,6000,17.69,73946.0,12.79,4.89,4.15,0,*73
1499080035.37,6001,17.69,73958.5,12.79,2.81,1.55,0,*7D
1499080036.61,6002,17.69,73964.8,12.79,2.09,-0.23,0,*63
1499080037.86,6003,17.69,73948.3,12.77,-2.63,-5.85,0,*74
1499080039.08,6004,17.69,73946.3,12.73,-2.11,-5.51,0,*7B
1499080040.32,6005,17.69,73950.3,12.67,0.71,-3.27,0,*61
1499080041.55,6006,17.69,73948.8,12.67,-0.23,-7.19,0,*41
1499080042.78,6007,17.69,73954.8,12.65,0.21,-3.63,0,*64
1499080044.02,6008,17.69,73962.5,12.67,-0.53,-4.69,0,*4C
1499080045.21,6009,17.69,73960.5,12.69,-0.33,-3.71,0,*4B
1499080046.43,6010,17.69,73956.8,12.73,1.85,-0.33,0,*6C
1499080047.62,6011,17.69,73964.8,12.75,2.95,-0.07,0,*5E
1499080048.83,6012,17.69,73966.0,12.79,2.61,-1.51,0,*58
1499080050.02,6013,17.69,73954.8,12.83,3.55,0.43,0,*45
1499080051.23,6014,17.69,73960.3,12.85,1.17,-1.75,0,*59
1499080052.48,6015,17.69,73970.3,12.87,0.37,-2.63,0,*6D
1499080053.69,6016,17.69,73972.3,12.89,-0.15,-1.47,0,*48
1499080054.85,6017,17.69,73956.5,12.95,-0.61,0.01,0,*69
1499080056.02,6018,17.69,73944.3,12.95,-0.07,1.05,0,*53
1499080057.19,6019,17.69,73962.0,12.95,0.09,1.01,0,*75
1499080058.41,6020,17.69,73956.3,12.95,2.25,2.73,0,*75
1499080059.59,6021,17.69,73946.0,12.95,0.09,-0.15,0,*67
1499080060.78,6022,17.69,73946.8,12.89,0.37,-0.29,0,*5B
1499080061.99,6023,17.69,73946.5,12.85,-0.69,-2.07,0,*4E
1499080063.19,6024,17.69,73948.0,12.83,-0.45,-1.55,0,*45
1499080064.4,6025,17.69,73946.3,12.79,-0.11,-1.59,0,*4C
1499080065.59,6026,17.69,73932.3,12.77,-0.81,-3.79,0,*48
1499080066.82,6027,17.69,73938.3,12.75,-3.03,-7.99,0,*78
1499080068.01,6028,17.69,73928.0,12.73,-4.13,-8.89,0,*79
1499080069.2,6029,17.69,73934.5,12.69,-5.35,-8.33,0,*77
1499080070.44,6030,17.69,73940.0,12.67,-2.99,-7.57,0,*7D
1499080071.68,6031,17.69,73944.3,12.67,-4.81,-10.09,0,*4E
1499080072.91,6032,17.69,73946.5,12.67,-3.75,-7.15,0,*7A
1499080074.11,6033,17.69,73948.5,12.69,-0.37,-3.63,0,*45
1499080075.33,6034,17.69,73954.3,12.73,-3.47,-9.23,0,*73
1499080076.52,6035,17.69,73956.0,12.73,-4.33,-8.45,0,*77
1499080077.76,6036,17.69,73958.8,12.69,-2.47,-5.93,0,*7C
1499080078.95,6037,17.69,73964.3,12.69,-2.91,-9.19,0,*78
1499080080.13,6038,17.69,73964.3,12.69,-2.87,-8.21,0,*7A
1499080081.34,6039,17.69,73964.5,12.69,-1.51,-7.57,0,*7D
1499080082.55,6040,17.69,73968.0,12.69,-0.49,-5.85,0,*46
1499080083.73,6041,17.69,73966.8,12.69,-0.65,-6.09,0,*4E
1499080084.94,6042,17.69,73954.8,12.69,-2.39,-7.91,0,*76
1499080086.13,6043,17.69,73956.8,12.69,-2.87,-11.23,0,*4C
1499080087.38,6044,17.69,73960.3,12.69,-8.11,-14.51,0,*4E
1499080088.61,6045,17.69,73960.8,12.75,-6.93,-3.15,0,*70
1499080089.79,6046,17.69,73956.0,12.77,-2.39,-0.57,0,*40
1499080090.99,6047,17.69,73954.5,12.81,-0.41,0.87,0,*55
1499080092.19,6048,17.69,73944.0,12.83,-0.11,0.43,0,*55
1499080093.41,6049,17.69,73950.0,12.83,-0.61,-0.97,0,*77
1499080094.64,6050,17.69,73952.8,12.83,-0.61,-2.71,0,*45
1499080095.88,6051,17.69,73944.5,12.83,-5.89,-6.89,0,*74
1499080097.06,6052,17.69,73944.0,12.81,-5.35,-8.33,0,*7D
1499080098.27,6053,17.69,73950.8,12.77,-5.65,-7.49,0,*72
1499080099.48,6054,17.69,73954.8,12.77,-5.39,-7.73,0,*75
1499080100.7,6055,17.69,73956.5,12.73,-2.35,-5.65,0,*7E
1499080101.88,6056,17.69,73956.8,12.73,-0.61,-3.75,0,*49
1499080103.1,6057,17.69,73960.0,12.73,-2.47,-6.13,0,*7B
1499080104.29,6058,17.69,73962.5,12.67,0.01,-0.65,0,*6B
1499080105.51,6059,17.69,73962.0,12.69,1.55,1.97,0,*75
1499080106.77,6060,17.69,73968.8,12.75,3.79,4.05,0,*70
1499080107.99,6061,17.69,73964.3,12.77,3.45,3.23,0,*7F
1499080109.24,6062,17.69,73962.8,12.79,2.81,2.17,0,*7D
1499080110.42,6063,17.69,73960.3,12.77,2.27,1.75,0,*79
1499080111.62,6064,17.69,73972.0,12.77,2.27,1.51,0,*78
1499080112.82,6065,17.69,73968.5,12.77,0.79,-1.29,0,*62
1499080114.03,6066,17.69,73958.8,12.69,-1.51,-5.19,0,*7F